228P/LINEAR (2020)

Japanese version
Home page
Updated on May 4, 2021

---------------------------------------------------------------------

* Profile

* Pictures

* Orbital Elements

Epoch 2020 Mar. 12.0 TT = JDT 2458920.5                                         
T 2020 Mar. 10.69775 TT                                 Rudenko                 
q   3.4358410            (2000.0)            P               Q                  
n   0.11555911     Peri.  115.30230     -0.82743964     -0.55706709             
a   4.1744564      Node    30.98881     +0.45292686     -0.73663120             
e   0.1769369      Incl.    7.90955     +0.33196521     -0.38347195             
P   8.53                                                                        
From 302 observations 2001 Dec. 9-2020 May 24, mean residual 0".6.              

* Magnitudes Graph

        m1 = 11.5 + 5 log d + 10.0 log r

---------------------------------------------------------------------

The orbital elements are published on M.P.E.C. 2020-L06.
The magnitudes graphs are made with Comet for Windows.

---------------------------------------------------------------------

Copyright(C) Seiichi Yoshida (comet@aerith.net). All rights reserved.